[[{"header":{"parameterUnit":"m.s-1","parameterCategory":1,"la1":30.2992,"la2":30.254,"lo1":-89.0895,"lo2":-89.0443,"dy":0.0025,"dx":0.0025,"nx":19,"ny":19,"refTime":"2026-05-05T09:00:00:Z","depth":0,"parameterNumber":2,"parameterNumberName":"U-component_of_WINDS"},"data":[0,0,0,-1.1628,-1.1629,-1.1664,-1.1665,-1.1712,-1.1712,0,0,0,0,0,0,0,0,0,0,0,-1.1617,-1.1617,-1.1628,-1.1629,-1.1664,-1.1665,-1.1712,-1.1712,0,0,0,0,0,0,0,0,0,0,0,-1.1617,-1.1617,-1.1617,-1.1629,-1.1664,-1.1665,-1.1712,-1.1685,0,0,0,0,0,0,0,0,0,0,-1.165,-1.1638,-1.1617,-1.1617,-1.1629,-1.1664,-1.1665,-1.1683,-1.1686,-1.1696,0,-1.1703,0,-1.1708,-1.1715,-1.1716,0,0,0,-1.163,-1.1636,-1.1646,-1.1617,-1.1629,-1.1664,-1.1649,-1.1685,-1.1688,-1.17,-1.1703,-1.1705,-1.1709,-1.1716,-1.1716,-1.1766,-1.1766,0,0,-1.1628,-1.1623,-1.1643,-1.1648,-1.1641,-1.1647,-1.165,-1.1687,-1.1691,-1.1704,-1.1706,-1.171,-1.1716,-1.1716,-1.1766,-1.1766,0,0,0,-1.1621,-1.1622,-1.1631,-1.1646,-1.1652,-1.1648,-1.1651,-1.169,-1.1693,-1.1707,-1.171,-1.1716,-1.1717,-1.1765,-1.1766,-1.177,0,0,0,-1.162,-1.1618,-1.163,-1.1628,-1.1652,-1.1671,-1.1653,-1.169,-1.1695,-1.171,-1.1716,-1.1717,-1.1765,-1.1766,-1.177,-1.1773,0,0,0,-1.1615,-1.1617,-1.1622,-1.1627,-1.1642,-1.167,-1.1676,-1.1691,-1.1697,-1.1716,-1.1717,-1.1765,-1.1766,-1.1769,-1.1772,-1.1785,0,0,0,-1.1608,-1.1626,-1.1622,-1.1644,-1.1642,-1.1673,-1.1676,-1.1699,-1.1716,-1.1716,-1.1765,-1.1766,-1.1769,-1.1772,-1.1784,-1.1795,-1.1798,0,0,-1.1628,-1.1628,-1.1642,-1.1639,-1.1669,-1.1668,-1.1699,-1.1719,-1.1726,-1.1753,-1.1754,-1.177,-1.1772,-1.1785,-1.1822,-1.1825,0,0,0,-1.1647,-1.1656,-1.1665,-1.1681,-1.1696,-1.171,-1.1726,-1.1734,-1.1756,-1.1738,-1.1778,-1.178,-1.1788,-1.1793,-1.1795,-1.1802,-1.1768,-1.1768,-1.1768,-1.1669,-1.1676,-1.1699,-1.1711,-1.1726,-1.1742,-1.1756,-1.1769,-1.1772,-1.1782,-1.179,-1.1811,-1.1817,-1.1819,-1.1826,-1.1796,-1.1796,-1.1796,-1.1796,-1.17,-1.1715,-1.1719,-1.1742,-1.175,-1.1771,-1.1789,-1.179,-1.1812,-1.1805,-1.1813,-1.1805,-1.1822,-1.1828,-1.1796,-1.1796,-1.1796,-1.1796,-1.1796,-1.1715,-1.1723,-1.1732,-1.1756,-1.1773,-1.1786,-1.1806,-1.1813,-1.182,-1.1827,-1.1836,-1.1836,-1.1837,-1.1831,-1.1831,-1.1831,-1.1831,-1.1831,-1.1831,-1.1727,-1.1737,-1.1752,-1.1771,-1.1782,-1.1798,-1.1816,-1.1828,-1.1843,-1.1847,-1.1847,-1.185,-1.1822,-1.1814,-1.1832,-1.1832,-1.1832,-1.1832,-1.1832,-1.1755,-1.175,-1.1774,-1.1785,-1.1808,-1.1826,-1.1835,-1.1859,-1.187,-1.188,-1.1882,-1.186,-1.1861,-1.1859,-1.1853,-1.188,-1.188,-1.188,-1.188,-1.1768,-1.1769,-1.1795,-1.1813,-1.1831,-1.1842,-1.1871,-1.1886,-1.1901,-1.1908,-1.1906,-1.1899,-1.1896,-1.1899,-1.1896,-1.189,-1.1926,-1.1926,-1.1926,-1.1786,-1.179,-1.1811,-1.1824,-1.1843,-1.186,-1.1887,-1.1909,-1.1925,-1.1928,-1.1915,-1.1913,-1.1901,-1.1897,-1.1899,-1.1894,-1.1884,0,0]},{"header":{"parameterUnit":"m.s-1","parameterCategory":1,"la1":30.2992,"la2":30.254,"lo1":-89.0895,"lo2":-89.0443,"dy":0.0025,"dx":0.0025,"nx":19,"ny":19,"refTime":"2026-05-05T09:00:00:Z","depth":0,"parameterNumber":3,"parameterNumberName":"V-component_of_WINDS"},"data":[0,0,0,6.5625,6.5625,6.5616,6.5616,6.5614,6.5614,0,0,0,0,0,0,0,0,0,0,0,6.5633,6.5633,6.5625,6.5625,6.5616,6.5616,6.5614,6.5614,0,0,0,0,0,0,0,0,0,0,0,6.5633,6.5633,6.5633,6.5625,6.5616,6.5616,6.5614,6.5617,0,0,0,0,0,0,0,0,0,0,6.5624,6.5637,6.5633,6.5633,6.5625,6.5616,6.5616,6.5617,6.5617,6.5622,0,6.5627,0,6.5621,6.5615,6.5615,0,0,0,6.5621,6.5637,6.563,6.5633,6.5625,6.5616,6.5619,6.5617,6.5617,6.5621,6.5627,6.5627,6.5621,6.5615,6.5615,6.5657,6.5657,0,0,6.5621,6.5634,6.563,6.563,6.5632,6.5619,6.5619,6.5617,6.5624,6.5627,6.5627,6.5621,6.5615,6.5615,6.5656,6.5657,0,0,0,6.5625,6.5635,6.5627,6.563,6.5628,6.5619,6.5619,6.5624,6.562,6.5627,6.5621,6.5615,6.5615,6.5656,6.5656,6.5689,0,0,0,6.5625,6.5637,6.5628,6.5636,6.5628,6.5626,6.5626,6.5621,6.562,6.5621,6.5615,6.5615,6.5655,6.5656,6.5687,6.5702,0,0,0,6.5632,6.5638,6.5638,6.5636,6.5633,6.5626,6.5622,6.562,6.5617,6.5615,6.5615,6.5655,6.5656,6.5685,6.5699,6.5717,0,0,0,6.5642,6.5666,6.5639,6.5665,6.5633,6.5646,6.5622,6.563,6.5632,6.5615,6.5655,6.5656,6.5685,6.5697,6.5716,6.5735,6.5744,0,0,6.568,6.5671,6.5685,6.5661,6.5682,6.5646,6.5672,6.5661,6.5649,6.5655,6.5656,6.5688,6.5699,6.5717,6.5792,6.5799,0,0,0,6.5702,6.5712,6.5715,6.5718,6.5711,6.5707,6.5691,6.5687,6.5692,6.5655,6.5699,6.5705,6.5715,6.5724,6.573,6.5738,6.5661,6.5661,6.5661,6.5774,6.5758,6.5781,6.5764,6.5767,6.5752,6.5753,6.5745,6.5727,6.5738,6.5739,6.5787,6.5798,6.5802,6.5811,6.5748,6.5748,6.5749,6.5749,6.5829,6.5841,6.5818,6.5832,6.5815,6.5826,6.5812,6.58,6.5807,6.5784,6.5792,6.5768,6.5811,6.5818,6.5751,6.5751,6.575,6.575,6.575,6.5875,6.5878,6.5874,6.5878,6.5882,6.5865,6.5874,6.5858,6.5843,6.5851,6.5851,6.5851,6.5848,6.5852,6.5852,6.5852,6.5853,6.5853,6.5853,6.5924,6.5918,6.5928,6.5924,6.5925,6.5924,6.5909,6.5909,6.5905,6.5893,6.5893,6.5874,6.5818,6.5805,6.5855,6.5855,6.5854,6.5854,6.5854,6.5985,6.5969,6.5985,6.5986,6.598,6.5987,6.5967,6.5969,6.5967,6.5972,6.5952,6.5913,6.5903,6.5898,6.5886,6.5955,6.5955,6.5955,6.5955,6.6024,6.6018,6.6031,6.6033,6.6034,6.6018,6.6037,6.6026,6.6013,6.6011,6.5999,6.5982,6.5978,6.597,6.5963,6.5953,6.6036,6.6037,6.6037,6.6061,6.6055,6.6074,6.6061,6.6056,6.6052,6.607,6.6074,6.6055,6.604,6.6009,6.6005,6.5979,6.5971,6.5954,6.5944,6.5924,0,0]}]]